This is the latest recevied weather packets stored in our database for station/object CW79215. If no packets are shown the sender has not sent any weather packets the latest 10 day(s).
| Time | Temp. | Humidity | Pressure | Rain* | Wind** | Luminosity | Snow |
|---|---|---|---|---|---|---|---|
| 1788595545 | 19.44° C | 70% | 1032.6 hPa | - | - | - | - |
| 1788594645 | 18.89° C | 80% | 1032.4 hPa | - | - | - | - |
| 1788593745 | 18.33° C | 84% | 1032.5 hPa | - | - | - | - |
| 1788592845 | 18.89° C | 83% | 1032.4 hPa | - | - | - | - |
| 1788591945 | 18.33° C | 84% | 1032.5 hPa | - | - | - | - |
| 1788591056 | 18.89° C | 79% | 1032.4 hPa | - | - | - | - |
| 1788590144 | 18.89° C | 84% | 1032.2 hPa | - | - | - | - |
| 1788589247 | 18.33° C | 81% | 1032 hPa | - | - | - | - |
| 1788588344 | 17.78° C | 86% | 1031.6 hPa | - | - | - | - |
| 1788587455 | 17.78° C | 85% | 1031.5 hPa | - | - | - | - |
| 1788586544 | 18.33° C | 82% | 1031.3 hPa | - | - | - | - |
| 1788585644 | 18.33° C | 83% | 1031.4 hPa | - | - | - | - |
| 1788584744 | 18.33° C | 83% | 1031.1 hPa | - | - | - | - |
| 1788583843 | 17.78° C | 84% | 1030.8 hPa | - | - | - | - |
| 1788582943 | 18.33° C | 83% | 1030.6 hPa | - | - | - | - |
| 1788582043 | 18.33° C | 84% | 1030.7 hPa | - | - | - | - |
| 1788581143 | 18.33° C | 82% | 1030.6 hPa | - | - | - | - |
| 1788580243 | 20° C | 72% | 1030.4 hPa | - | - | - | - |
| 1788579342 | 20° C | 69% | 1030.1 hPa | - | - | - | - |
| 1788578442 | 21.11° C | 61% | 1030.5 hPa | - | - | - | - |
| 1788577542 | 21.11° C | 62% | 1030.2 hPa | - | - | - | - |
| 1788576642 | 20.56° C | 65% | 1029.9 hPa | - | - | - | - |
| 1788575744 | 20.56° C | 66% | 1029.7 hPa | - | - | - | - |
| 1788574844 | 21.11° C | 64% | 1029.5 hPa | - | - | - | - |
| 1788573944 | 20.56° C | 65% | 1029.5 hPa | - | - | - | - |
* Rain since midnight (hover to see other rain measurements)
** Current wind speed in m/s (hover to see current wind gust speed)